Flag for Iran Weather past 2 weeks in Mashhad, Iran

Now
63 °F

Clear.


Feels Like: 63 °F
Forecast: 53 / 76 °F
Wind: 7 mph from Southeast

Location: Mashhad Airport

Current Time: May 25, 2015 at 12:36:05 AM

Latest Report: May 25, 2015 at 12:00 AM


Visibility: 10 mi

Pressure: 30.12 "Hg

Humidity: 30%

Dew point: 30 °F

Location of MashhadLocation

Historic Weather in Mashhad — Graph

°F

Mashhad temperature yesterday

Maximum temperature yesterday: 81 °F (at 2:00 PM)
Minimum temperature yesterday: 59 °F (at 4:00 AM)
Average temperature yesterday: 70 °F

Past Weeks' High & Low Weather Summary

 TemperatureHumidityPressure
High95 °F (May 15, 4:00 PM)94% (May 10, 3:30 AM)30.18 "Hg (May 10, 3:30 AM)
Low55 °F (May 12, 4:30 AM)9% (May 15, 1:00 PM)29.80 "Hg (May 10, 3:00 PM)
Average73 °F40%30.03 "Hg
* Reported May 9 10:30 PM — May 24 11:00 PM, Mashhad, Weather by CustomWeather, © 2015

Note: Actual official high and low records may vary slightly from our data, if they occured in-between our weather recording intervals... More about our weather records

Advertising

Mashhad weather history for previous 24 hours

 ConditionsComfort  
Time TempWeatherWind HumidityBarometerVisibility
11:00 PM
Sun, May 24
64 °FClear.12 mph30%30.12 "Hg10 mi
10:30 PM64 °FClear.7 mph32%30.12 "Hg10 mi
10:00 PM64 °FClear.5 mph32%30.12 "Hg10 mi
9:30 PM68 °FClear.7 mph26%30.12 "Hg10 mi
9:00 PM68 °FSunny.7 mph26%30.09 "Hg10 mi
8:30 PM68 °FSunny.9 mph28%30.09 "Hg10 mi
8:00 PM70 °FSunny.12 mph27%30.09 "Hg10 mi
7:30 PM72 °FPartly sunny.16 mph25%30.07 "HgN/A
7:00 PM75 °FPartly sunny.16 mph21%30.07 "HgN/A
6:30 PM77 °FPartly sunny.14 mph18%30.07 "HgN/A
6:00 PM79 °FPartly sunny.14 mph15%30.07 "HgN/A
5:30 PM81 °FPartly sunny.18 mph14%30.04 "HgN/A
5:00 PM81 °FScattered clouds.7 mph13%30.04 "HgN/A
4:30 PM79 °FScattered clouds.14 mph15%30.04 "HgN/A
4:00 PM81 °FPartly sunny.9 mph14%30.04 "HgN/A
3:30 PM81 °FPartly sunny.12 mph13%30.04 "HgN/A
3:00 PM81 °FPartly sunny.12 mph13%30.07 "HgN/A
2:30 PM81 °FScattered clouds.14 mph14%30.07 "HgN/A
2:00 PM81 °FScattered clouds.7 mph14%30.07 "HgN/A
1:30 PM79 °FScattered clouds.14 mph16%30.07 "HgN/A
1:00 PM77 °FSunny.12 mph17%30.07 "Hg10 mi
12:30 PM77 °FSunny.9 mph18%30.09 "Hg10 mi
12:00 PM75 °FSunny.5 mph18%30.09 "Hg10 mi
11:30 AM73 °FPassing clouds.12 mph20%30.09 "HgN/A
11:00 AM75 °FSunny.5 mph19%30.12 "Hg10 mi
10:30 AM72 °FSunny.5 mph23%30.09 "Hg10 mi
10:00 AM70 °FSunny.9 mph23%30.09 "Hg10 mi
9:30 AM70 °FSunny.7 mph23%30.12 "Hg10 mi
9:00 AM68 °FSunny.7 mph24%30.12 "Hg10 mi
8:30 AM68 °FSunny.7 mph24%30.12 "Hg10 mi
8:00 AM66 °FSunny.12 mph28%30.12 "Hg10 mi
7:30 AM63 °FSunny.9 mph34%30.09 "Hg10 mi
7:00 AM63 °FSunny.7 mph37%30.12 "Hg10 mi
6:30 AM63 °FClear.7 mph37%30.09 "Hg10 mi
5:55 AM61 °FClear.9 mph39%30.09 "Hg10 mi
5:30 AM61 °FClear.9 mph39%30.09 "Hg10 mi
5:00 AM61 °FClear.7 mph42%30.09 "Hg10 mi
4:30 AM59 °FClear.7 mph45%30.07 "Hg10 mi
4:00 AM59 °FClear.5 mph45%30.07 "Hg10 mi
3:30 AM61 °FClear.5 mph42%30.07 "Hg10 mi
3:00 AM63 °FClear.5 mph39%30.07 "Hg10 mi
2:30 AM63 °FClear.5 mph39%30.07 "Hg10 mi
2:00 AM63 °FPassing clouds.7 mph39%30.07 "HgN/A
1:30 AM63 °FPassing clouds.7 mph37%30.07 "HgN/A
1:00 AM64 °FPassing clouds.7 mph34%30.07 "HgN/A
12:30 AM66 °FPassing clouds.7 mph32%30.07 "HgN/A
12:00 AM66 °FPassing clouds.5 mph30%30.09 "HgN/A
Weather by CustomWeather, © 2015

See weather overviewHow to use our weather pages